Regional Weather Roundup
Issued by NWS

Home | Current Version | Previous Version | Graphics & Text | Print | Product List | Glossary Off
Versions: 1 2 3 4 5 6 7 8 9 10 11 12 13 14 15 16 17 18 19 20 21 22 23 24 25 26 27 28 29 30 31 32 33 34 35 36 37 38 39 40 41 42 43 44 45 46 47 48 49 50

000
ASUS43 KMPX 010501
RWRMN
WEATHER ROUNDUP FOR MINNESOTA
NATIONAL WEATHER SERVICE TWIN CITIES/CHANHASSEN MN
1100 PM CST SAT FEB 28 2015


NOTE: "FAIR" INDICATES FEW OR NO CLOUDS BELOW 12,000 FEET WITH NO
SIGNIFICANT WEATHER AND/OR OBSTRUCTIONS TO VISIBILITY. N/A MEANS
CURRENT SKY AND/OR WEATHER CONDITIONS ARE NOT AVAILABLE.

MNZ060>063-068>070-010600-
   Twin Cities Metro

CITY           SKY/WX    TMP DP  RH WIND       PRES   REMARKS
TWIN CITIES    CLOUDY    13   4  67 S7        30.32F WCI   3
ST PAUL        CLOUDY    13   5  70 S12       30.35F WCI  -1
CRYSTAL        PTCLDY    14   5  67 S9        30.30F WCI   2
BLAINE         FLURRIES  14   7  73 S9        30.30S WCI   2
LAKEVILLE      CLOUDY    10   7  85 S9        30.32S WCI  -2
EDEN PRAIRIE   MOCLDY    13   5  70 S10       30.30F WCI   0
SOUTH ST PAUL  CLOUDY    13   5  70 S7        30.33F WCI   3
LAKE ELMO      MOCLDY    12   5  73 S9        30.33F WCI   0
$$
MNZ001>005-007-008-013>017-022>024-027-028-010600-
   Northwest Minnesota

CITY           SKY/WX    TMP DP  RH WIND       PRES   REMARKS
BEMIDJI        LGT SNOW  17  13  86 SW8       30.10S WCI   6
HALLOCK        CLEAR      3  -2  78 W8        30.12S WCI -10
ROSEAU         CLEAR     12   5  73 W8        30.08S WCI   1
WARROAD        LGT SNOW  14  10  85 W10G17    30.07R WCI   1
THIEF RVR FALL CLOUDY     7   1  78 SW8       30.13R WCI  -6
CROOKSTON      PTCLDY     7   1  78 W9        30.18R WCI  -7
FOSSTON        MOCLDY     7   1  78 SW8       30.15R WCI  -6
DETROIT LAKES  FLURRIES  14  10  85 NW13      30.17R WCI   0
MOORHEAD       CLEAR      9   3  78 W3        30.22R
PARK RAPIDS    LGT SNOW  17  12  80 S12       30.12S WCI   4
MAHNOMEN       CLOUDY    12   6  79 W15       30.15R WCI  -4
$$
MNZ006-009>011-018-025>026-010600-
   North Central Minnesota

CITY           SKY/WX    TMP DP  RH WIND       PRES   REMARKS
BAUDETTE       CLOUDY    18  12  77 SW14      30.04S WCI   4
FLAG ISLAND    LGT SNOW  18  14  86 SW9       30.03S WCI   6
INTL FALLS     LGT SNOW  17  11  77 S9G18     30.07F WCI   6
WASKISH        LGT SNOW  18  16  93 CALM      30.09R
BIG FORK       LGT SNOW  16  10  79 S8        30.11F WCI   5
LONGVILLE      LGT SNOW  14  10  85 S8        30.15S WCI   3
GRAND RAPIDS   MOCLDY    12   9  85 S14       30.13F WCI  -3
CRANE LAKE     MOCLDY    16   7  67 S8        30.14F WCI   5
ORR            CLOUDY    14   7  73 S10G16    30.09F WCI   1
COOK           CLOUDY    12   7  79 S6        30.13F WCI   3
WALKER         LGT SNOW  15  11  84 SW12      30.12S WCI   2
$$
MNZ012-019>021-037-010600-
   Northeast Minnesota

CITY           SKY/WX    TMP DP  RH WIND       PRES   REMARKS
DULUTH         MOCLDY    12   1  61 SW12      30.19F WCI  -2
ELY            MOCLDY    12   5  73 S9        30.14F WCI   0
HIBBING        CLOUDY    13   4  67 S5        30.15F WCI   5
EVELETH        MOCLDY    14   5  67 S12       30.16F WCI   0
DULUTH HARBOR  CLOUDY    16   3  57 SW14      30.27F WCI   1
SILVER BAY     MOCLDY    16   7  67 SW9G18    30.19F WCI   4
GRAND MARAIS     N/A     20  16  84 SW25G37   30.23F WCI   2
G MARAIS ARPRT LGT SNOW  10   7  85 SW10      30.13F WCI  -3
$$
MNZ029>031-032-039>041-046>048-054>057-064-010600-
   West Central Minnesota

CITY           SKY/WX    TMP DP  RH WIND       PRES   REMARKS
FERGUS FALLS   FLURRIES  16   9  73 NW10      30.24R WCI   3
MORRIS         LGT SNOW  19  14  79 S8        30.18F WCI   9
ALEXANDRIA     CLOUDY    17  12  80 S14       30.17F WCI   3
ELBOW LAKE     FLURRIES  17  14  88 S9        30.18S WCI   6
WADENA         FLURRIES  14  10  85 S6        30.15S WCI   5
APPLETON       CLOUDY    18  12  79 S7        30.21R WCI   8
BENSON         CLOUDY    18  12  79 SW7       30.21S WCI   8
ORTONVILLE     FLURRIES  19  12  73 CALM      30.20R
MADISON        PTCLDY    14  10  85 SW8       30.21R WCI   3
WILLMAR        CLOUDY    19  12  73 S7        30.23S WCI  10
$$
MNZ033>034-036-042>043-049>051-058-059-010600-
   Central Minnesota

CITY           SKY/WX    TMP DP  RH WIND       PRES   REMARKS
ST CLOUD       CLOUDY    13   7  77 S14       30.25F WCI  -2
SAUK CENTRE    CLOUDY    17  12  84 S12       30.20F WCI   4
PAYNESVILLE    CLOUDY    14  10  87 SE13      30.22F WCI  -1
PINE RIVER     FLURRIES  16  10  79 S9        30.19F WCI   4
BRAINERD       CLOUDY    13   8  81 S10       30.19F WCI   0
STAPLES        LGT SNOW  14  10  85 S9        30.17S WCI   2
LONG PRAIRIE   LGT SNOW  16  12  86 S12       30.19F WCI   3
LITTLE FALLS   LGT SNOW  16  10  79 S7        30.22F WCI   6
LITCHFIELD     CLOUDY    16  12  86 S5        30.25F WCI   9
MAPLE LAKE     CLOUDY    13   9  83 S7        30.27F WCI   3
$$
MNZ037-044-045-052-053-010600-
   East Central Minnesota

CITY           SKY/WX    TMP DP  RH WIND       PRES   REMARKS
PRINCETON      CLOUDY    12   5  73 S8        30.26F WCI   1
MORA           PTCLDY    12   5  73 S6        30.28F WCI   3
CAMBRIDGE      CLEAR     12   3  67 S7        30.27F WCI   2
RUSH CITY      PTCLDY    11   3  72 S6        30.29F WCI   1
MOOSE LAKE     MOCLDY    12   3  67 S8        30.22F WCI   1
HINCKLEY       FAIR      12   5  73 S7        30.27F WCI   2
CLOQUET        FAIR      10   1  67 S10       30.20F WCI  -3
MCGREGOR       MOCLDY    14   9  79 S8G16     30.20F WCI   3
$$
MNZ071>073-080-081-089-090-097-098-010600-
   Southwest Minnesota

CITY           SKY/WX    TMP DP  RH WIND       PRES   REMARKS
MONTEVIDEO     CLOUDY    18  12  79 SW12      30.22S WCI   5
GRANITE FALLS  CLOUDY    18  13  82 S13       30.23F WCI   4
CANBY          FAIR      20  13  75 SW14      30.21R WCI   6
MARSHALL       PTCLDY    19  10  68 SW22      30.22R WCI   3
REDWOOD FALLS  CLOUDY    15  10  80 S9        30.25F WCI   3
OLIVIA         CLOUDY    16  12  86 S14       30.23F WCI   1
PIPESTONE      CLEAR     16  10  79 SW15      30.20R WCI   1
WINDOM         CLEAR     16  10  79 S9        30.25S WCI   4
WORTHINGTON    CLEAR     25   9  50 S14       30.25S WCI  13
JACKSON        CLEAR     14  10  85 S13       30.26F WCI   0
TRACY          PTCLDY    18  13  80 SW18G25   30.21S WCI   2
SLAYTON        CLEAR     15  11  83 S22       30.21S WCI  -3
$$
MNZ065>067-074>077-082>085-091>093-010600-
   South Central Minnesota

CITY           SKY/WX    TMP DP  RH WIND       PRES   REMARKS
MANKATO        PTCLDY    12   1  62 S9G16     30.30F WCI   0
NEW ULM        CLEAR     12   9  85 S12       30.27F WCI  -2
ST JAMES       CLEAR     16  12  86 S13       30.29S WCI   2
FAIRMONT       CLEAR     12   9  85 S13       30.28F WCI  -3
GLENCOE        MOCLDY    13   9  85 S7        30.27F WCI   3
FARIBAULT      CLOUDY    12   7  79 S12       30.32F WCI  -2
OWATONNA       CLOUDY    12   7  79 S16       30.31F WCI  -4
WASECA         CLOUDY    14   9  79 S14       30.33F WCI  -1
ALBERT LEA     FLURRIES  12   9  85 S13       30.31F WCI  -3
$$
MNZ078>079-086>088-094>096-010600-
   Southeast Minnesota

CITY           SKY/WX    TMP DP  RH WIND       PRES   REMARKS
ROCHESTER      LGT SNOW   9   3  77 S12       30.34F WCI  -6
RED WING       CLOUDY    14   3  62 SW6       30.36F WCI   5
STANTON        CLOUDY    14   6  72 S10       30.32F WCI   1
DODGE CENTER   FLURRIES  10   7  85 S21       30.31F WCI  -9
WINONA         CLOUDY    14   3  62 S6        30.42S WCI   5
AUSTIN         LGT SNOW   9   5  85 S9        30.34F WCI  -5
PRESTON        MOCLDY     7   1  76 S9        30.37S WCI  -7
$$
ABBREVIATIONS USED IN REMARKS
   TC - TEMPERATURES IN CELSIUS
  WCI - WIND CHILL INDEX
   HX - HEAT INDEX
  VSB - VISIBILITY
$$



USA.gov is the U.S. government's official web portal to all federal, state and local government web resources and services.